Weather History for Fort Drum, NY

Change the Weather History Date:

Saturday, August 3, 2013

  Actual Average Record
Temperature  
Mean Temperature 65 °F -  
Max Temperature 72 °F 76 °F 87 °F (2007)
Min Temperature 58 °F 56 °F 51 °F (1999)
Growing Degree Days 15 (Base 50)    
Moisture  
Dew Point 60 °F    
Average Humidity 91    
Maximum Humidity 100    
Minimum Humidity 65    
Precipitation  
Precipitation 0.71 in - - ()
Sea Level Pressure  
Sea Level Pressure 29.84 in    
Wind  
Wind Speed 6 mph (WSW)    
Max Wind Speed 13 mph    
Max Gust Speed 22 mph    
Visibility 8 miles    
Events Rain , Thunderstorm    
Averages and records for this station are not official NWS values.
T = Trace of Precipitation, MM = Missing Value Source: NWS Daily Summary

Daily Weather History Graph

Daily Weather History Graph

Search for Another Location

Airport:

Trip Planner

Search our weather history database for the weather conditions in past years. The results will help you decide how hot, cold, wet, or windy it might be!

Date:

Astronomy

Aug. 03, 2013 Rise Set
Actual Time 5:53 AM EDT 8:24 PM EDT
Civil Twilight 5:20 AM EDT 8:56 PM EDT
Nautical Twilight 4:39 AM EDT 9:37 PM EDT
Astronomical Twilight 3:53 AM EDT 10:23 PM EDT
Moon 2:59 AM EDT (8/3) 6:05 PM EDT (8/3)
Length of Visible Light 15h 36m
Length of Day
14h 30m
Waning Crescent, 9% of the Moon is Illuminated
Aug 3
Waning Crescent
Aug 6
New
Aug 14
First Quarter
Aug 20
Full
Aug 28
Last Quarter

Hourly Weather History & Observations

Time (EDT) Temp. Dew Point Humidity Pressure Visibility Wind Dir Wind Speed Gust Speed Precip Events Conditions
12:20 AM 60.8 °F 60.8 °F 100% 29.81 in 10.0 mi South 8.1 mph - N/A Rain Light Rain
12:32 AM 60.8 °F 60.8 °F 100% 29.81 in 10.0 mi South 8.1 mph - N/A   Mostly Cloudy
12:46 AM 60.8 °F 60.8 °F 100% 29.80 in 10.0 mi South 8.1 mph - N/A Thunderstorm Thunderstorm
12:58 AM 61.2 °F 60.6 °F 98% 29.80 in 10.0 mi South 9.2 mph - 0.00 in Thunderstorm Thunderstorm
1:01 AM 60.8 °F 60.8 °F 100% 29.80 in 10.0 mi South 8.1 mph - N/A   Mostly Cloudy
1:24 AM 60.8 °F 60.8 °F 100% 29.82 in 10.0 mi North 9.2 mph 17.3 mph N/A Rain Light Rain
1:29 AM 60.8 °F 60.8 °F 100% 29.82 in 9.0 mi North 8.1 mph 16.1 mph N/A Rain Light Rain
1:39 AM 59.0 °F 59.0 °F 100% 29.81 in 4.0 mi Variable 3.5 mph - N/A Rain Heavy Rain
1:44 AM 59.0 °F 59.0 °F 100% 29.81 in 3.0 mi Calm Calm - N/A Rain Heavy Rain
1:54 AM 59.0 °F 59.0 °F 100% 29.81 in 9.0 mi North 4.6 mph - N/A Rain Light Rain
1:58 AM 59.7 °F 59.7 °F 100% 29.81 in 10.0 mi North 4.6 mph - 0.11 in Rain Light Rain
2:00 AM 59.0 °F 59.0 °F 100% 29.81 in 10.0 mi NNE 6.9 mph - N/A Rain , Thunderstorm Light Thunderstorms and Rain
2:10 AM 59.0 °F 59.0 °F 100% 29.80 in 8.0 mi NE 5.8 mph - N/A Rain , Thunderstorm Light Thunderstorms and Rain
2:15 AM 59.0 °F 59.0 °F 100% 29.81 in 4.0 mi West 3.5 mph - N/A Rain Heavy Rain
2:20 AM 59.0 °F 59.0 °F 100% 29.81 in 2.0 mi NNW 2.3 mph - N/A Rain Heavy Rain
2:25 AM 59.0 °F 59.0 °F 100% 29.81 in 1.2 mi Variable 2.3 mph - N/A Rain Heavy Rain
2:30 AM 59.0 °F 59.0 °F 100% 29.80 in 0.8 mi Calm Calm - N/A Rain Heavy Rain
2:34 AM 59.0 °F 59.0 °F 100% 29.80 in 1.0 mi South 5.8 mph - N/A Rain , Thunderstorm Heavy Thunderstorms and Rain
2:39 AM 59.0 °F 59.0 °F 100% 29.80 in 1.8 mi Calm Calm - N/A Rain , Thunderstorm Heavy Thunderstorms and Rain
2:44 AM 59.0 °F 59.0 °F 100% 29.80 in 3.0 mi WSW 2.3 mph - N/A Rain , Thunderstorm Heavy Thunderstorms and Rain
2:49 AM 59.0 °F 59.0 °F 100% 29.80 in 4.0 mi SSW 2.3 mph - N/A Rain Rain
2:58 AM 58.8 °F 58.8 °F 100% 29.80 in 4.0 mi SSW 4.6 mph - 0.51 in Rain Rain
3:03 AM 59.0 °F 59.0 °F 100% 29.80 in 5.0 mi South 4.6 mph - N/A Rain Rain
3:08 AM 59.0 °F 59.0 °F 100% 29.80 in 5.0 mi South 6.9 mph - N/A Rain Light Rain
3:38 AM 59.0 °F 59.0 °F 100% 29.80 in 10.0 mi South 9.2 mph - N/A Rain Light Rain
3:45 AM 59.0 °F 59.0 °F 100% 29.79 in 10.0 mi SSW 6.9 mph - N/A   Mostly Cloudy
3:55 AM 59.0 °F 59.0 °F 100% 29.79 in 10.0 mi SSW 6.9 mph - N/A Thunderstorm Mostly Cloudy
3:58 AM 59.0 °F 59.0 °F 100% 29.79 in 10.0 mi SSW 6.9 mph - 0.07 in Thunderstorm Mostly Cloudy
4:23 AM 59.0 °F 59.0 °F 100% 29.80 in 10.0 mi South 3.5 mph - N/A   Overcast
4:43 AM 59.0 °F 59.0 °F 100% 29.80 in 10.0 mi South 4.6 mph - N/A   Overcast
4:48 AM 60.8 °F 60.8 °F 100% 29.80 in 10.0 mi South 5.8 mph - N/A   Overcast
4:58 AM 60.1 °F 60.1 °F 100% 29.80 in 10.0 mi South 3.5 mph - N/A   Overcast
5:23 AM 59.0 °F 59.0 °F 100% 29.81 in 10.0 mi South 3.5 mph - N/A   Scattered Clouds
5:58 AM 58.1 °F 58.1 °F 100% 29.82 in 10.0 mi SSW 2.3 mph - N/A   Clear
6:58 AM 61.3 °F 61.3 °F 100% 29.83 in 10.0 mi West 3.5 mph - N/A   Partly Cloudy
7:58 AM 63.0 °F 63.0 °F 100% 29.85 in 10.0 mi West 6.9 mph - N/A   Partly Cloudy
8:48 AM 64.4 °F 60.8 °F 88% 29.86 in 10.0 mi Variable 6.9 mph - N/A   Mostly Cloudy
8:58 AM 63.3 °F 60.4 °F 90% 29.86 in 10.0 mi West 9.2 mph - N/A   Mostly Cloudy
9:58 AM 66.4 °F 58.5 °F 76% 29.85 in 10.0 mi West 9.2 mph - N/A   Scattered Clouds
10:03 AM 66.2 °F 59.0 °F 78% 29.86 in 10.0 mi West 8.1 mph - N/A   Mostly Cloudy
10:08 AM 66.2 °F 59.0 °F 78% 29.85 in 10.0 mi West 10.4 mph 18.4 mph N/A   Scattered Clouds
10:58 AM 68.0 °F 58.1 °F 71% 29.86 in 10.0 mi West 8.1 mph - N/A   Mostly Cloudy
11:08 AM 68.0 °F 59.0 °F 73% 29.86 in 10.0 mi West 8.1 mph 18.4 mph N/A   Mostly Cloudy
11:23 AM 68.0 °F 57.2 °F 68% 29.86 in 10.0 mi West 9.2 mph - N/A   Scattered Clouds
11:58 AM 68.5 °F 57.6 °F 68% 29.86 in 10.0 mi West 11.5 mph 17.3 mph N/A   Scattered Clouds
12:58 PM 69.1 °F 58.5 °F 69% 29.86 in 10.0 mi West 12.7 mph 17.3 mph N/A   Mostly Cloudy
1:58 PM 70.0 °F 57.9 °F 65% 29.86 in 10.0 mi Variable 5.8 mph - N/A   Scattered Clouds
2:58 PM 71.8 °F 59.7 °F 66% 29.86 in 10.0 mi WSW 12.7 mph 21.9 mph N/A   Partly Cloudy
3:34 PM 69.8 °F 60.8 °F 73% 29.85 in 10.0 mi West 12.7 mph 21.9 mph N/A   Light Drizzle
3:45 PM 69.8 °F 60.8 °F 73% 29.85 in 10.0 mi WSW 9.2 mph 18.4 mph N/A   Scattered Clouds
3:58 PM 72.0 °F 60.8 °F 68% 29.85 in 10.0 mi West 11.5 mph 20.7 mph 0.00 in   Scattered Clouds
4:58 PM 69.8 °F 60.8 °F 73% 29.85 in 10.0 mi WSW 11.5 mph 21.9 mph N/A   Scattered Clouds
5:58 PM 69.3 °F 60.3 °F 73% 29.86 in 10.0 mi WSW 12.7 mph 21.9 mph N/A   Partly Cloudy
6:18 PM 69.8 °F 60.8 °F 73% 29.85 in 10.0 mi WSW 12.7 mph 17.3 mph N/A   Mostly Cloudy
6:23 PM 69.8 °F 60.8 °F 73% 29.85 in 10.0 mi West 10.4 mph 20.7 mph N/A   Mostly Cloudy
6:58 PM 69.4 °F 61.5 °F 76% 29.86 in 10.0 mi West 9.2 mph 19.6 mph N/A   Partly Cloudy
7:58 PM 66.9 °F 61.0 °F 81% 29.85 in 10.0 mi WSW 6.9 mph - N/A   Clear
8:58 PM 64.8 °F 61.0 °F 88% 29.87 in 10.0 mi WSW 3.5 mph - N/A   Scattered Clouds
9:43 PM 64.4 °F 60.8 °F 88% 29.89 in 9.0 mi WNW 1.2 mph - N/A   Overcast
9:53 PM 64.4 °F 60.8 °F 88% 29.89 in 9.0 mi West 2.3 mph - N/A   Mostly Cloudy
9:58 PM 64.0 °F 60.8 °F 89% 29.89 in 9.0 mi West 1.2 mph - N/A   Mostly Cloudy
10:07 PM 64.4 °F 60.8 °F 88% 29.89 in 10.0 mi WSW 2.3 mph - N/A Thunderstorm Light Drizzle
10:18 PM 64.4 °F 60.8 °F 88% 29.89 in 10.0 mi West 3.5 mph - N/A   Scattered Clouds
10:22 PM 62.6 °F 60.8 °F 94% 29.89 in 10.0 mi West 4.6 mph - N/A Rain Light Rain
10:27 PM 62.6 °F 60.8 °F 94% 29.89 in 5.0 mi West 4.6 mph - N/A Rain Light Rain
10:32 PM 62.6 °F 60.8 °F 94% 29.89 in 4.0 mi West 9.2 mph - N/A Rain Rain
10:37 PM 62.6 °F 60.8 °F 94% 29.88 in 7.0 mi West 2.3 mph - N/A Rain Light Rain
10:42 PM 62.6 °F 60.8 °F 94% 29.89 in 10.0 mi WNW 3.5 mph - N/A Rain Light Rain
10:48 PM 62.6 °F 60.8 °F 94% 29.88 in 10.0 mi West 2.3 mph - N/A   Overcast
10:58 PM 62.1 °F 61.0 °F 96% 29.88 in 10.0 mi West 2.3 mph - 0.02 in   Overcast
11:58 PM 61.3 °F 60.6 °F 97% 29.88 in 10.0 mi WSW 2.3 mph - N/A   Scattered Clouds